This is the latest recevied weather packets stored in our database for station/object KB1WCR. If no packets are shown the sender has not sent any weather packets the latest 10 day(s).
| Time | Temp. | Humidity | Pressure | Rain* | Wind** | Luminosity | Snow |
|---|---|---|---|---|---|---|---|
| 1777736264 | 7.78° C | 95% | 1012.3 hPa | 0 mm | - | 101 W/m² | - |
| 1777735961 | 7.78° C | 95% | 1012.5 hPa | 0 mm | - | 176 W/m² | - |
| 1777735658 | 7.78° C | 95% | 1012.3 hPa | 0 mm | - | 262 W/m² | - |
| 1777735355 | 7.78° C | 95% | 1012.1 hPa | 0 mm | - | 266 W/m² | - |
| 1777735053 | 7.22° C | 96% | 1012.4 hPa | 0 mm | - | 166 W/m² | - |
| 1777734750 | 7.78° C | 94% | 1012.2 hPa | 0 mm | - | 155 W/m² | - |
| 1777734447 | 7.78° C | 95% | 1012.1 hPa | 0 mm | - | 261 W/m² | - |
| 1777734138 | 7.22° C | 95% | 1012.3 hPa | 0 mm | - | 315 W/m² | - |
| 1777733835 | 7.22° C | 95% | 1012.5 hPa | 0 mm | - | 318 W/m² | - |
| 1777733228 | 7.22° C | 97% | 1012.7 hPa | 0 mm | - | 254 W/m² | - |
| 1777732925 | 6.67° C | 96% | 1013 hPa | 0 mm | - | 157 W/m² | - |
| 1777732621 | 7.22° C | 96% | 1012.8 hPa | 0 mm | - | 114 W/m² | - |
| 1777732319 | 6.67° C | 95% | 1012.8 hPa | 0 mm | - | 113 W/m² | - |
| 1777732015 | 7.22° C | 95% | 1013 hPa | 0 mm | - | 115 W/m² | - |
| 1777731712 | 7.22° C | 96% | 1013 hPa | 0 mm | - | 131 W/m² | - |
| 1777731409 | 6.67° C | 95% | 1012.8 hPa | 0 mm | - | 180 W/m² | - |
| 1777731108 | 7.22° C | 95% | 1012.7 hPa | 0 mm | - | 224 W/m² | - |
| 1777730806 | 6.67° C | 95% | 1013 hPa | 0 mm | - | 229 W/m² | - |
| 1777730502 | 6.67° C | 96% | 1013 hPa | 0 mm | - | 237 W/m² | - |
| 1777730198 | 6.67° C | 96% | 1012.9 hPa | 0 mm | - | 269 W/m² | - |
| 1777729895 | 6.67° C | 95% | 1012.9 hPa | 0 mm | - | 326 W/m² | - |
| 1777729591 | 6.67° C | 96% | 1013.2 hPa | 0 mm | - | 351 W/m² | - |
| 1777729288 | 6.67° C | 98% | 1013 hPa | 1.27 mm | - | 394 W/m² | - |
| 1777728985 | 6.11° C | 97% | 1013.3 hPa | 1.27 mm | - | 225 W/m² | - |
| 1777728681 | 6.11° C | 97% | 1013.4 hPa | 1.78 mm | - | 119 W/m² | - |
* Rain latest hour (hover to see other rain measurements)
** Current wind speed in m/s (hover to see current wind gust speed)